Starlink 32750

operational
NORAD ID: 62572 Int'l Des: 2025-006 Owner: SPXS Country: US Constellation: starlink
LEOCIRCULAR

关于 Starlink 32750

正在加载描述...

实时位置

正在加载3D地球...

即将过境

高度历史

Altitude vs Time

uPlot chart will show altitude changes over time

两行轨道根数

1 62572U 25006U 25302.30529825 .00044044 00000-0 15983-2 0 9995
2 62572 43.0039 314.1719 0002138 272.2380 87.8227 15.27624468 44778
Epoch: Oct 29, 2025 • Age: 13 hours

当前状态

高度 487.3 km
速度 7.63 km/s
星下点 42.69°N, 68.55°E
发射日期 Jan 10, 2025
运行时间 0.7 years
类型 internet

技术详情

分类 Payload
质量 730.00 kg
干质量 700.00 kg
总质量 730.00 kg
长度 0.30 m
直径 4.10 m
跨度 29.00 m
形状 Box + pan
制造商 SPXS
平台类型 Starlink V2M
阶段状态 In Orbit
所有者/国家 SPXS/US

大型星座

Loading constellations...